CW6734 Weather Reports


Display with metric or nautical units.
time (UTC)temp
F
wind
direction
speed
MPH
gust
MPH
rain 1hr
in
rain 24hr
in
rain mn
in
humidity
%
barometer
mb
20210420045755 49 350 1.0 7.0 0.00 0.00 0.00 72 1014.6
20210420044512 50 329 2.0 6.0 0.00 0.00 0.00 72 1014.4
20210420043528 50 345 2.0 9.0 0.00 0.00 0.00 71 1014.2
20210420042718 51 327 3.0 9.0 0.00 0.00 0.00 69 1014.0
20210420041442 52 323 4.0 11.0 0.00 0.00 0.00 67 1013.9
20210420040533 54 349 4.0 11.0 0.00 0.00 0.00 63 1013.9
20210420035858 56 325 2.0 8.0 0.00 0.00 0.00 57 1013.4
20210420034525 57 275 1.0 8.0 0.00 0.00 0.00 54 1012.9
20210420033517 57 250 1.0 8.0 0.00 0.00 0.00 53 1012.6
20210420032758 57 236 1.0 8.0 0.00 0.00 0.00 53 1012.6
20210420031519 57 242 0.0 7.0 0.00 0.00 0.00 54 1012.6
20210420030500 58 283 1.0 7.0 0.00 0.00 0.00 52 1012.7
20210420025629 57 220 1.0 5.0 0.00 0.00 0.00 53 1012.7
20210420024524 57 216 0.0 2.0 0.00 0.00 0.00 54 1012.8
20210420023523 57 214 0.0 1.0 0.00 0.00 0.00 51 1012.7
20210420022737 58 227 0.0 2.0 0.00 0.00 0.00 50 1012.7
20210420021557 58 259 0.0 1.0 0.00 0.00 0.00 50 1012.6
20210420020559 59 241 0.0 7.0 0.00 0.00 0.00 50 1012.4
20210420015709 58 279 0.0 5.0 0.00 0.00 0.00 50 1012.5
20210420014526 59 257 0.0 3.0 0.00 0.00 0.00 48 1012.3
20210420013518 59 269 0.0 3.0 0.00 0.00 0.00 48 1012.3
20210420012849 59 257 0.0 2.0 0.00 0.00 0.00 47 1012.2
20210420011527 59 188 0.0 1.0 0.00 0.00 0.00 46 1012.1
20210420010524 59 234 0.0 1.0 0.00 0.00 0.00 46 1012.0
20210420005819 60 224 0.0 5.0 0.00 0.00 0.00 45 1011.8
20210420004418 60 230 0.0 5.0 0.00 0.00 0.00 44 1011.7
20210420003353 60 294 0.0 4.0 0.00 0.00 0.00 45 1011.7
20210420002847 61 227 1.0 5.0 0.00 0.00 0.00 43 1011.5
20210420001324 61 235 1.0 5.0 0.00 0.00 0.00 43 1011.5
20210420000309 62 271 2.0 13.0 0.00 0.00 0.00 40 1011.4
20210419235606 62 253 3.0 13.0 0.00 0.00 0.00 40 1011.3
20210419234201 62 245 1.0 11.0 0.00 0.00 0.00 40 1011.3
20210419233149 63 240 2.0 13.0 0.00 0.00 0.00 40 1011.4
20210419232724 63 202 2.0 15.0 0.00 0.00 0.00 39 1011.2
20210419231111 63 267 3.0 15.0 0.00 0.00 0.00 40 1011.2
20210419230123 64 204 3.0 14.0 0.00 0.00 0.00 38 1011.2
20210419225703 65 268 4.0 14.0 0.00 0.00 0.00 39 1011.2
20210419224049 65 226 2.0 10.0 0.00 0.00 0.00 39 1011.2
20210419223115 64 261 2.0 10.0 0.00 0.00 0.00 40 1011.2
20210419222420 64 257 3.0 17.0 0.00 0.00 0.00 40 1011.1
20210419221130 65 209 3.0 17.0 0.00 0.00 0.00 38 1011.1
20210419220056 66 276 3.0 13.0 0.00 0.00 0.00 37 1011.1
20210419215246 66 292 2.0 13.0 0.00 0.00 0.00 40 1011.0
20210419214040 66 235 2.0 13.0 0.00 0.00 0.00 38 1011.0
20210419213059 67 297 3.0 13.0 0.00 0.00 0.00 34 1011.0
20210419212535 67 192 2.0 11.0 0.00 0.00 0.00 37 1011.0
20210419211147 67 300 2.0 11.0 0.00 0.00 0.00 38 1010.9
20210419210132 67 254 2.0 12.0 0.00 0.00 0.00 37 1010.9
20210419205742 67 273 3.0 12.0 0.00 0.00 0.00 36 1011.0
20210419204136 66 268 2.0 11.0 0.00 0.00 0.00 39 1011.0
20210419203115 66 279 2.0 5.0 0.00 0.00 0.00 39 1011.1
20210419202459 66 301 2.0 14.0 0.00 0.00 0.00 38 1011.2
20210419201117 65 263 3.0 14.0 0.00 0.00 0.00 39 1011.2
20210419200037 66 248 5.0 14.0 0.00 0.00 0.00 37 1011.2
20210419195158 66 262 2.0 13.0 0.00 0.00 0.00 42 1011.1
20210419194035 66 228 3.0 13.0 0.00 0.00 0.00 37 1011.1
20210419193040 65 280 2.0 10.0 0.00 0.00 0.00 42 1011.3
20210419192229 66 98 3.0 11.0 0.00 0.00 0.00 39 1011.3
20210419191044 65 279 3.0 11.0 0.00 0.00 0.00 41 1011.4
20210419190048 66 276 3.0 7.0 0.00 0.00 0.00 40 1011.4
20210419185137 67 304 2.0 13.0 0.00 0.00 0.00 42 1011.5
20210419184033 66 200 3.0 13.0 0.00 0.01 0.00 45 1011.7
20210419183038 66 303 3.0 12.0 0.00 0.01 0.00 45 1011.7
20210419182410 65 150 2.0 8.0 0.00 0.01 0.00 43 1011.8
20210419181109 64 198 2.0 10.0 0.00 0.01 0.00 46 1011.8
20210419180108 64 341 2.0 10.0 0.00 0.01 0.00 40 1011.9
20210419175319 64 277 2.0 12.0 0.00 0.01 0.00 42 1012.0
20210419174058 64 272 3.0 12.0 0.00 0.01 0.00 44 1012.0
20210419173058 65 293 3.0 10.0 0.00 0.01 0.00 42 1012.2
20210419172415 64 222 2.0 11.0 0.00 0.01 0.00 44 1012.3
20210419171036 64 252 2.0 11.0 0.00 0.01 0.00 45 1012.4
20210419170038 65 245 3.0 11.0 0.00 0.01 0.00 41 1012.4
20210419165414 65 288 3.0 11.0 0.00 0.01 0.00 40 1012.5
20210419164052 64 249 3.0 10.0 0.00 0.01 0.00 41 1012.4
20210419163114 64 259 3.0 10.0 0.00 0.01 0.00 42 1012.7
20210419162226 64 256 2.0 12.0 0.00 0.01 0.00 45 1012.6
20210419161105 63 188 3.0 12.0 0.00 0.01 0.00 45 1012.7
20210419160056 63 188 3.0 10.0 0.00 0.01 0.00 45 1012.8
20210419155317 63 5 2.0 9.0 0.00 0.01 0.00 43 1012.8
20210419154033 63 188 2.0 9.0 0.00 0.01 0.00 45 1013.0
20210419153026 63 269 2.0 9.0 0.00 0.01 0.00 44 1013.1
20210419152125 62 287 2.0 7.0 0.00 0.01 0.00 45 1013.2
20210419151038 62 185 2.0 7.0 0.00 0.01 0.00 45 1013.2
20210419150052 61 274 2.0 8.0 0.00 0.01 0.00 49 1013.3
20210419145518 60 209 1.0 8.0 0.00 0.01 0.00 51 1013.4
20210419143956 59 273 1.0 6.0 0.00 0.01 0.00 56 1013.3
20210419142923 58 222 1.0 5.0 0.00 0.01 0.00 57 1013.4
20210419141942 57 313 0.0 3.0 0.00 0.01 0.00 61 1013.4
20210419140856 56 267 1.0 3.0 0.00 0.01 0.00 62 1013.4
20210419135911 55 234 0.0 2.0 0.00 0.01 0.00 72 1013.4
20210419134938 54 193 0.0 2.0 0.00 0.01 0.00 72 1013.3
20210419133829 52 223 0.0 3.0 0.00 0.01 0.00 76 1013.2
20210419132826 50 207 0.0 4.0 0.00 0.01 0.00 81 1013.2
20210419131917 48 185 0.0 4.0 0.00 0.01 0.00 86 1013.3
20210419130850 47 221 0.0 1.0 0.00 0.01 0.00 91 1013.4
20210419125905 45 259 0.0 2.0 0.00 0.01 0.00 97 1013.5
20210419124832 43 254 0.0 2.0 0.00 0.01 0.00 97 1013.6
20210419123755 42 259 0.0 2.0 0.00 0.01 0.00 96 1013.7
20210419122742 40 259 0.0 2.0 0.00 0.01 0.00 96 1013.7
20210419121746 39 292 0.0 2.0 0.00 0.01 0.00 95 1013.7
20210419120746 39 182 0.0 2.0 0.00 0.01 0.00 96 1013.7
20210419115835 38 44 0.0 0.0 0.00 0.01 0.00 95 1013.4
20210419114802 38 44 0.0 0.0 0.00 0.01 0.00 95 1013.2
20210419113755 38 44 0.0 0.0 0.00 0.01 0.00 95 1013.0
20210419112833 38 44 0.0 0.0 0.00 0.01 0.00 95 1013.0
20210419111809 38 44 0.0 0.0 0.00 0.01 0.00 95 1013.1
20210419110742 37 44 0.0 0.0 0.00 0.01 0.00 95 1013.1
20210419105915 38 44 0.0 0.0 0.00 0.01 0.00 94 1013.0
20210419104801 38 44 0.0 0.0 0.00 0.01 0.00 94 1013.0
20210419103706 39 44 0.0 0.0 0.00 0.01 0.00 95 1012.8
20210419102714 39 44 0.0 0.0 0.00 0.01 0.00 96 1012.8
20210419101637 40 44 0.0 0.0 0.00 0.01 0.00 96 1012.7
20210419100701 39 44 0.0 0.0 0.00 0.01 0.00 96 1012.6
20210419095719 38 44 0.0 0.0 0.00 0.01 0.00 95 1012.6
20210419094647 38 44 0.0 0.0 0.00 0.01 0.00 95 1012.6
20210419093707 37 44 0.0 0.0 0.00 0.01 0.00 94 1012.7
20210419092720 37 44 0.0 0.0 0.00 0.01 0.00 93 1012.7
20210419091635 38 44 0.0 0.0 0.00 0.01 0.00 93 1012.7
20210419090653 38 44 0.0 0.0 0.00 0.01 0.00 94 1012.7
20210419085637 38 44 0.0 0.0 0.00 0.01 0.00 94 1012.8
20210419084630 39 44 0.0 0.0 0.00 0.01 0.00 93 1012.8
20210419083640 39 44 0.0 0.0 0.00 0.01 0.00 93 1012.9
20210419082642 40 44 0.0 0.0 0.00 0.01 0.00 94 1012.8
20210419081623 40 44 0.0 0.0 0.00 0.01 0.00 94 1012.7
20210419080645 40 44 0.0 0.0 0.00 0.01 0.00 94 1012.7
20210419075645 40 44 0.0 0.0 0.00 0.01 0.00 94 1012.7
20210419074702 40 44 0.0 0.0 0.00 0.01 0.00 93 1012.7
20210419073711 40 44 0.0 0.0 0.00 0.01 0.00 92 1012.7
20210419072701 41 44 0.0 0.0 0.00 0.01 0.00 92 1012.8
20210419071637 41 44 0.0 0.0 0.00 0.01 0.00 93 1012.8
20210419070606 41 44 0.0 0.0 0.00 0.01 0.00 94 1013.0
20210419065633 41 44 0.0 0.0 0.00 0.01 0.00 93 1013.0
20210419064624 41 44 0.0 0.0 0.00 0.01 0.00 93 1013.1
20210419063631 41 44 0.0 0.0 0.00 0.01 0.00 91 1013.1
20210419062739 42 44 0.0 0.0 0.00 0.01 0.00 92 1013.2
20210419061651 42 44 0.0 0.0 0.00 0.01 0.00 92 1013.3
20210419060715 42 44 0.0 0.0 0.00 0.01 0.00 91 1013.3
20210419055724 42 44 0.0 0.0 0.00 0.01 0.00 90 1013.4
20210419054737 42 44 0.0 0.0 0.00 0.01 0.00 90 1013.5
20210419053712 43 44 0.0 0.0 0.00 0.01 0.00 89 1013.5
20210419052755 43 44 0.0 0.0 0.00 0.01 0.00 89 1013.6
20210419051754 44 45 0.0 0.0 0.00 0.01 0.00 88 1013.5
20210419050755 45 44 0.0 0.0 0.00 0.01 0.00 87 1013.5